AGROMETEOROLOŠKI PORTAL

vinorodna pokrajina

Temelj dobrega kmetovanja

Pregled podatkov za lokacijo RAVNE NA KOROŠKEM - ARSO, meteorološka postaja 132

Pregled senzorjev na lokaciji

ID Ime Zadnja
vrednost
Datum in čas
meritve
(lokalni čas)
Tip
senzorja
6007 Sončno sevanje (W/m2) 409 W/m2 1.2.2023 14:00 ARSO
2967 Padavine (mm) 0 mm 1.2.2023 14:00 ARSO
2975 Relativna zračna vlaga (2 m) (% RH) 62 % RH 1.2.2023 14:00 ARSO
2974 Temperatura (2 m) (°C) 4,4 °C 1.2.2023 14:00 ARSO
2979 Smer vetra (2 m) (°) 230 ° 1.2.2023 14:00 ARSO
2980 Hitrost vetra (2 m) (km/h) 8 km/h 1.2.2023 14:00 ARSO

Pregled podatkov zadnjih 24 ur

Zap.
št.
Datum in čas
(lokalni čas)
RAVNE NA KOROŠKEM - ARSO
Sončno
sevanje
Padavine Relativna
zračna
vlaga
(2
m)
Temperatura
(2
m)
Smer
vetra
(2
m)
Hitrost
vetra
(2
m)
1 1.2.2023 14:00 409 0 62 4,4 230 8
2 1.2.2023 13:30 441 0 60 4,7 222 6
3 1.2.2023 13:00 461 0 62 4,2 173 4
4 1.2.2023 12:30 462 0 64 3,3 53 4
5 1.2.2023 12:00 592 0 69 1,7 114 3
6 1.2.2023 11:30 458 0 72 0,4 161 2
7 1.2.2023 11:00 361 0 76 -0,6 184 2
8 1.2.2023 10:30 327 0 80 -2,1 166 3
9 1.2.2023 10:00 290 0 86 -3,7 124 3
10 1.2.2023 09:30 250 0 90 -4,6 214 3
11 1.2.2023 09:00 210 0 95 -6,2 129 2
12 1.2.2023 08:30 147 0 95 -7,9 168 1
13 1.2.2023 08:00 11 0 95 -8,4 268 1
14 1.2.2023 07:30 0 0 95 -8,5 79 1
15 1.2.2023 07:00 0 0 95 -8,6 334 1
16 1.2.2023 06:30 0 0 95 -8,4 300 1
17 1.2.2023 06:00 0 0 95 -8,2 342 1
18 1.2.2023 05:30 0 0 95 -8,1 72 1
19 1.2.2023 05:00 0 0 96 -7,9 315 1
20 1.2.2023 04:30 0 0 96 -7,7 270 2
21 1.2.2023 04:00 0 0 96 -7,6 85 2
22 1.2.2023 03:30 0 0 96 -7,5 348 1
23 1.2.2023 03:00 0 0 96 -7,1 271 2
24 1.2.2023 02:30 0 0 96 -7 349 1
25 1.2.2023 02:00 0 0 96 -6,8 265 1
26 1.2.2023 01:30 0 0 96 -6,6 61 2
27 1.2.2023 01:00 0 0 95 -6,5 356 1
28 1.2.2023 00:30 0 0 95 -6 277 1
29 1.2.2023 00:00 0 0 95 -5,7 141 1
30 31.1.2023 23:30 0 0 95 -5,4 281 1
31 31.1.2023 23:00 0 0 95 -5 258 1
32 31.1.2023 22:30 0 0 95 -4,7 88 2
33 31.1.2023 22:00 0 0 95 -4,5 331 1
34 31.1.2023 21:30 0 0 95 -3,9 293 2
35 31.1.2023 21:00 0 0 94 -3,7 83 1
36 31.1.2023 20:30 0 0 94 -3,3 317 2
37 31.1.2023 20:00 0 0 93 -3,2 264 2
38 31.1.2023 19:30 0 0 93 -2,8 289 2
39 31.1.2023 19:00 0 0 92 -2,3 259 1
40 31.1.2023 18:30 0 0 90 -1,9 25 1
41 31.1.2023 18:00 0 0 89 -1,3 148 2
42 31.1.2023 17:30 0 0 87 -0,6 273 2
43 31.1.2023 17:00 8 0 83 0,4 197 1
44 31.1.2023 16:30 27 0 79 1,5 223 3
45 31.1.2023 16:00 75 0 75 2,6 210 2
46 31.1.2023 15:30 190 0 69 3,7 248 4
47 31.1.2023 15:00 289 0 63 4,4 262 3